Regional Weather Roundup
Issued by NWS State College, PA

Home | Current Version | Previous Version | Text Only | Print | Product List | Glossary On
Versions: 1 2 3 4 5 6 7 8 9 10 11 12 13 14 15 16 17 18 19 20 21 22 23 24 25 26 27 28 29 30 31 32 33 34 35 36 37 38 39 40 41 42 43 44 45 46 47 48 49 50
000
ASUS41 KCTP 250203
RWRCTP

REGIONAL WEATHER ROUNDUP
NATIONAL WEATHER SERVICE STATE COLLEGE PA
1000 PM EDT WED AUG 24 2016

Note: "fair" indicates few or no clouds below 12,000 feet with no
significant weather and/or obstructions to visibility.

* = STATION THAT DOES NOT REPORT PRECIPITATION /E.G. RAIN...SNOW...ETC/
    THUNDER OR FOG.

PAZ002>004-007>009-013>016-020>023-029>032-250300-
WESTERN PENNSYLVANIA

CITY           SKY/WX    TMP DP  RH WIND       PRES   REMARKS
ERIE           MOCLDY    79  63  57 S10       30.04S
MEADVILLE      MOCLDY    74  62  66 S6        30.11R
FRANKLIN*      MOCLDY    72  61  68 S7        30.13S
NEW CASTLE     FAIR      77  65  66 VRB3      30.11S
BEAVER COUNTY  NOT AVBL
BUTLER*        NOT AVBL
PITTSBURGH INT MOCLDY    77  64  64 S6        30.12S
PITTSBURGH     CLEAR     76  63  64 S7        30.13R
INDIANA*       CLEAR     70  66  88 CALM      30.17S
LATROBE        CLEAR     72  66  83 CALM      30.15R
WASHINGTON CO* CLEAR     70  64  83 CALM      30.14S
$$

PAZ004>006-010>012-017>019-024>028-033>037-041-042-045-046-049>053-250300-
CENTRAL PENNSYLVANIA

CITY           SKY/WX    TMP DP  RH WIND       PRES   REMARKS
BRADFORD       CLEAR     67  61  81 SE3       30.16S
DUBOIS         CLOUDY    72  59  63 CALM      30.15S
CLEARFIELD     CLOUDY    70  62  76 CALM      30.16S
JOHNSTOWN      CLEAR     71  63  75 S9        30.20S
ALTOONA        CLEAR     72  66  81 SW5       30.18S
STATE COLLEGE  CLOUDY    73  65  75 SW3       30.16S
WILLIAMSPORT   CLOUDY    79  62  56 S12       30.11S
SELINSGROVE    CLEAR     74  67  78 S7        30.15R
FT INDIANTOWN  CLEAR     72  65  79 S2        30.19R
CAPITAL CITY   CLEAR     76  64  66 S12       30.17R
HARRISBURG     MOCLDY    76  67  73 S8        30.17R
YORK           CLEAR     73  65  75 VRB5      30.18S
$$

PAZ038>040-043-044-047-048-054-055-060>062-067>071-250300-
EASTERN PENNSYLVANIA

CITY           SKY/WX    TMP DP  RH WIND       PRES   REMARKS
SCRANTON       CLEAR     75  62  64 VRB5      30.18R
MOUNT POCONO   CLEAR     64  59  83 SW6       30.23S
ALLENTOWN      CLEAR     75  61  61 SW8       30.18R
QUAKERTOWN*    CLEAR     68  63  83 CALM      30.21R
READING        CLEAR     73  62  68 S5        30.17S
LANCASTER      CLEAR     72  66  81 SE6       30.18S
COATESVILLE    CLEAR     70  63  78 CALM      30.22S
POTTSTOWN      CLEAR     72  62  71 CALM      30.21R
BLUE BELL      CLEAR     70  63  78 S3        30.20R
DOYLESTOWN     CLEAR     75  64  68 SW5       30.19R
WILLOW GROVE   NOT AVBL
NORTH PHILA    CLEAR     76  62  62 VRB5      30.21R
PHILADELPHIA   PTCLDY    75  61  61 S12       30.20R
$$




USA.gov is the U.S. government's official web portal to all federal, state and local government web resources and services.